Location: Votelez
(50.0000°N, 15.0000°E)
Time: 10:53:58
(UTC+01:00)

ISS - Pass Details

Date: 18 February 2026
Orbit: 416 x 426 km, 51.6° (Epoch: 10 March)

Event Time Altitude Azimuth Distance (km) Brightness Sun altitude
Exits shadow 04:54:25 40° 150° (SSE) 632 -2.8 -21.6°
Drops below altitude 10° 04:57:34 10° 80° (E) 1,494 0.2 -21.1°
Sets 04:59:43 0° 73° (ENE) 2,359 1.5 -20.8°
